Precipitable_Water
1.51 1.75 1.91 1.69 0.96 0.63 0.58 0.64 0.74 0.67 0.63 1.01 0.98 0.87 0.99 1.08 0.99 0.93 1.84 1.83 1.75 1.68 1.82 1.84 1.83 1.82 1.80 1.79 1.75 1.72 1.66 1.63 1.66 1.68 1.70 1.75 1.78 1.86 1.91 1.94 2.03 2.02 1.99 2.03 2.08 2.13 2.05 1.96 1.76
1.56 1.78 1.75 1.40 0.73 0.42 0.50 0.58 0.59 0.73 0.78 0.80 0.84 0.78 0.79 0.85 1.24 1.45 1.62 1.87 1.72 1.66 1.80 1.79 1.76 1.77 1.78 1.71 1.64 1.64 1.62 1.61 1.64 1.69 1.67 1.70 1.76 1.80 1.84 1.86 1.93 2.00 1.92 1.97 2.00 2.07 2.06 2.01 1.85
1.52 1.68 1.32 1.06 0.68 0.51 0.60 0.66 0.63 0.82 0.93 0.85 0.76 1.00 0.91 0.92 1.25 1.32 1.64 1.71 1.55 1.67 1.76 1.75 1.73 1.67 1.68 1.68 1.63 1.63 1.64 1.65 1.66 1.70 1.70 1.73 1.76 1.78 1.79 1.83 1.87 1.93 1.90 1.88 1.96 2.04 2.03 2.03 2.00
1.41 1.34 1.30 0.85 0.53 0.61 0.70 0.72 0.77 0.81 0.92 0.90 0.84 0.83 1.24 1.48 1.37 1.43 1.67 1.74 1.54 1.71 1.76 1.75 1.70 1.67 1.67 1.66 1.65 1.65 1.64 1.63 1.65 1.67 1.67 1.69 1.66 1.73 1.82 1.80 1.85 1.91 1.93 1.92 2.04 2.08 2.10 2.00 2.07
1.34 1.26 0.89 0.70 0.58 0.73 0.80 0.76 0.74 0.82 0.85 0.92 0.94 0.87 0.94 1.32 1.60 1.68 1.65 1.66 1.56 1.71 1.72 1.72 1.67 1.65 1.66 1.64 1.64 1.65 1.62 1.59 1.57 1.58 1.58 1.57 1.60 1.66 1.75 1.74 1.76 1.88 1.96 1.97 1.96 2.03 2.07 2.04 2.05
1.11 1.07 0.76 0.64 0.66 0.79 0.89 0.90 0.89 0.86 1.00 1.04 1.04 1.00 1.01 1.32 1.47 1.70 1.73 1.76 2.07 1.69 1.66 1.62 1.65 1.64 1.64 1.65 1.64 1.62 1.59 1.55 1.54 1.53 1.56 1.65 1.70 1.63 1.61 1.59 1.66 1.75 1.90 2.00 1.99 2.00 2.08 2.05 2.05
1.01 1.00 0.86 0.79 0.66 0.65 0.82 0.95 0.85 0.78 0.90 0.91 1.08 0.91 1.09 1.26 1.47 1.71 1.74 1.80 1.95 1.91 1.68 1.57 1.64 1.67 1.65 1.64 1.63 1.60 1.57 1.53 1.51 1.54 1.63 1.64 1.58 1.57 1.59 1.55 1.63 1.66 1.74 1.87 1.95 2.06 2.04 2.05 2.07
1.08 1.13 0.90 0.94 0.64 0.64 0.80 0.92 0.89 0.69 0.76 1.18 1.17 0.87 0.93 1.26 1.47 1.64 1.75 1.76 1.76 1.94 1.70 1.54 1.58 1.65 1.68 1.65 1.65 1.61 1.60 1.61 1.61 1.62 1.58 1.53 1.65 1.66 1.63 1.55 1.52 1.52 1.61 1.71 1.89 1.97 2.05 2.06 1.99
1.16 0.93 0.81 0.84 0.68 0.66 0.78 0.79 0.92 1.08 1.06 0.99 1.06 0.99 1.12 1.36 1.42 1.46 1.49 1.57 1.66 1.70 1.69 1.58 1.53 1.62 1.70 1.72 1.75 1.69 1.70 1.73 1.72 1.68 1.61 1.57 1.63 1.75 1.68 1.61 1.66 1.63 1.56 1.63 1.72 1.88 1.96 2.01 1.95
0.86 0.75 0.73 0.76 0.62 0.59 0.66 0.77 0.79 0.86 0.93 0.93 1.07 1.22 1.21 1.29 1.34 1.25 1.41 1.41 1.47 1.49 1.68 1.76 1.61 1.63 1.79 1.90 1.90 1.87 1.87 1.82 1.79 1.75 1.68 1.70 1.82 1.91 1.86 1.77 1.82 1.84 1.65 1.54 1.59 1.71 1.81 1.93 1.91
0.74 0.55 0.62 0.54 0.56 0.62 0.71 0.79 0.94 0.82 0.71 0.87 0.88 1.02 1.08 1.13 1.25 1.28 1.24 1.38 1.47 1.54 1.54 1.71 1.71 1.70 1.81 1.92 2.05 1.96 1.97 1.96 2.01 2.05 2.08 2.03 2.03 2.10 2.01 1.98 1.90 1.89 1.85 1.64 1.62 1.66 1.67 1.70 1.77
0.68 0.64 0.58 0.49 0.49 0.54 0.56 0.79 0.85 0.87 0.78 0.96 1.03 1.08 1.10 1.13 1.18 1.22 1.22 1.32 1.41 1.57 1.63 1.66 1.68 1.78 1.92 1.97 2.09 2.07 2.04 2.04 2.03 2.03 2.02 2.02 2.03 2.06 2.02 2.07 2.03 2.08 2.00 1.84 1.89 1.84 1.89 1.72 1.68
0.59 0.56 0.52 0.51 0.53 0.53 0.55 0.62 0.77 0.78 0.97 1.10 1.10 1.12 1.10 1.18 1.22 1.27 1.36 1.44 1.48 1.53 1.67 1.73 1.77 1.76 1.84 1.82 1.96 2.02 2.10 1.95 1.98 2.03 1.93 1.92 1.82 1.77 1.85 1.85 2.03 2.10 2.02 1.93 1.89 1.96 1.96 1.93 1.91
0.56 0.54 0.46 0.51 0.53 0.55 0.54 0.64 0.72 0.85 1.05 1.11 1.09 1.06 1.14 1.18 1.24 1.28 1.39 1.43 1.48 1.56 1.58 1.77 1.85 1.83 1.71 1.76 1.88 1.98 1.98 1.89 1.95 2.07 1.76 1.90 1.85 1.80 1.75 1.71 1.68 1.78 1.88 1.93 1.82 1.89 1.91 1.82 1.73
0.49 0.40 0.41 0.51 0.52 0.47 0.53 0.55 0.74 0.85 1.02 0.98 1.06 1.13 1.19 1.24 1.29 1.25 1.34 1.41 1.54 1.62 1.60 1.65 1.85 1.98 1.94 1.84 1.92 1.89 1.84 1.85 1.98 1.80 1.92 1.80 1.79 1.81 1.77 1.73 1.75 1.74 1.66 1.74 1.79 1.87 1.88 1.84 1.75
0.28 0.35 0.36 0.49 0.54 0.57 0.49 0.44 0.60 0.80 0.84 0.94 1.09 1.14 1.20 1.27 1.32 1.32 1.37 1.41 1.60 1.66 1.70 1.90 2.12 2.23 2.07 1.95 1.92 1.84 1.89 1.84 1.89 1.92 1.88 1.85 1.93 1.98 2.02 1.98 1.84 1.89 1.85 1.73 1.69 1.70 1.73 1.75 1.74
0.28 0.27 0.34 0.51 0.57 0.51 0.41 0.47 0.68 0.75 0.90 0.92 1.00 1.13 1.15 1.24 1.30 1.34 1.40 1.49 1.56 1.65 1.78 1.81 2.03 2.04 2.01 1.90 1.82 1.81 1.79 1.93 2.00 2.02 1.93 1.93 1.97 2.04 2.01 2.05 2.08 1.96 1.98 1.93 1.74 1.58 1.61 1.62 1.70
0.22 0.27 0.33 0.40 0.49 0.44 0.35 0.45 0.71 0.75 0.86 0.86 0.94 1.09 1.10 1.14 1.24 1.37 1.46 1.56 1.58 1.71 1.83 1.92 1.91 1.78 1.88 1.72 1.79 1.77 1.70 1.96 2.09 1.93 1.81 1.83 1.77 1.79 1.86 2.01 1.99 1.97 1.97 1.98 1.96 1.74 1.82 1.81 1.87
0.27 0.28 0.29 0.30 0.37 0.36 0.32 0.38 0.61 0.65 0.77 0.87 0.95 1.08 1.08 1.08 1.23 1.40 1.48 1.60 1.69 1.78 1.81 1.99 1.94 1.96 1.93 1.80 1.73 1.72 1.66 1.98 1.97 1.87 1.77 1.74 1.72 1.66 1.66 1.73 1.80 1.94 1.98 1.98 1.98 1.96 1.87 1.93 1.98
0.25 0.23 0.26 0.25 0.34 0.29 0.30 0.31 0.40 0.58 0.67 0.86 0.96 1.03 1.08 1.11 1.21 1.31 1.42 1.54 1.59 1.68 1.79 1.82 1.93 1.93 1.82 1.82 1.83 1.79 1.94 2.08 1.99 1.83 1.72 1.67 1.56 1.49 1.47 1.57 1.69 1.74 1.77 1.84 1.91 1.88 1.80 1.90 1.97
0.21 0.18 0.22 0.22 0.32 0.38 0.36 0.33 0.38 0.46 0.64 0.91 1.00 1.05 1.11 1.09 1.13 1.25 1.38 1.45 1.55 1.49 1.63 1.68 1.80 1.72 1.79 1.89 1.72 1.72 1.81 1.79 1.68 1.59 1.55 1.51 1.44 1.40 1.49 1.65 1.80 1.82 1.76 1.71 1.77 1.87 1.81 1.70 1.83
0.14 0.23 0.28 0.22 0.22 0.20 0.31 0.23 0.33 0.42 0.54 0.67 0.89 1.00 1.13 1.12 1.18 1.31 1.37 1.42 1.42 1.46 1.62 1.64 1.73 1.69 1.76 1.92 1.68 1.61 1.50 1.42 1.50 1.51 1.41 1.40 1.47 1.44 1.59 1.86 1.83 1.88 1.91 1.83 1.79 1.86 1.82 1.81 1.67
0.17 0.29 0.35 0.31 0.24 0.22 0.24 0.29 0.38 0.52 0.54 0.66 0.75 1.00 1.08 1.18 1.22 1.28 1.32 1.32 1.39 1.52 1.52 1.62 1.76 1.78 1.79 1.94 1.80 1.71 1.56 1.58 1.50 1.43 1.30 1.33 1.49 1.47 1.56 1.70 1.77 1.89 1.91 1.91 1.85 1.81 1.82 1.83 1.75
0.26 0.26 0.27 0.26 0.21 0.18 0.31 0.35 0.42 0.51 0.59 0.70 0.75 0.80 1.11 1.17 1.26 1.30 1.32 1.31 1.35 1.46 1.50 1.58 1.64 1.75 1.80 1.85 1.87 1.72 1.52 1.45 1.37 1.30 1.26 1.34 1.41 1.44 1.44 1.61 1.76 1.91 1.95 1.88 1.87 1.88 1.85 1.86 1.86
0.24 0.20 0.16 0.18 0.25 0.29 0.44 0.41 0.47 0.57 0.61 0.77 0.79 0.93 1.06 1.15 1.17 1.20 1.22 1.22 1.27 1.35 1.47 1.59 1.60 1.60 1.72 1.68 1.67 1.47 1.40 1.41 1.39 1.30 1.30 1.31 1.29 1.28 1.40 1.68 1.82 1.93 1.97 1.90 1.88 1.87 1.84 1.87 1.88
0.27 0.25 0.19 0.16 0.24 0.29 0.39 0.34 0.44 0.58 0.71 0.74 0.78 0.89 0.97 0.99 1.08 1.11 1.20 1.23 1.27 1.37 1.45 1.52 1.53 1.57 1.62 1.61 1.55 1.47 1.51 1.45 1.46 1.40 1.41 1.27 1.24 1.33 1.57 1.73 1.84 1.94 1.97 1.87 1.89 1.91 1.88 1.89 1.88
0.28 0.29 0.33 0.27 0.28 0.29 0.33 0.42 0.53 0.59 0.69 0.72 0.71 0.83 0.88 0.88 0.96 1.02 1.16 1.22 1.25 1.35 1.44 1.51 1.53 1.58 1.61 1.56 1.48 1.44 1.54 1.45 1.39 1.49 1.43 1.24 1.35 1.45 1.54 1.60 1.74 1.85 1.77 1.74 1.81 1.82 1.88 1.90 1.88
0.31 0.31 0.27 0.30 0.21 0.22 0.25 0.37 0.43 0.53 0.55 0.61 0.77 0.84 0.95 0.96 1.02 1.04 1.14 1.27 1.37 1.41 1.49 1.59 1.65 1.63 1.66 1.61 1.46 1.47 1.51 1.42 1.47 1.50 1.38 1.28 1.32 1.44 1.40 1.42 1.51 1.52 1.56 1.66 1.78 1.82 1.87 1.90 1.87
0.29 0.24 0.26 0.29 0.28 0.24 0.22 0.35 0.55 0.54 0.60 0.72 0.87 1.14 0.84 0.91 1.03 1.06 1.19 1.31 1.42 1.39 1.48 1.67 1.73 1.70 1.64 1.56 1.53 1.55 1.50 1.40 1.48 1.43 1.43 1.37 1.34 1.38 1.30 1.29 1.34 1.39 1.42 1.48 1.50 1.57 1.64 1.66 1.73
0.37 0.32 0.38 0.32 0.28 0.27 0.30 0.40 0.65 0.67 0.81 0.90 0.90 1.13 1.14 1.08 1.15 1.18 1.25 1.36 1.27 1.36 1.62 1.89 2.01 1.71 1.70 1.58 1.48 1.45 1.47 1.37 1.40 1.42 1.44 1.45 1.36 1.34 1.25 1.24 1.28 1.33 1.36 1.41 1.37 1.34 1.35 1.35 1.42
Wind_Speed
9 9 7 8 8 10 12 13 13 11 12 15 16 12 8 4 3 2 7 8 9 10 10 10 9 9 8 7 7 7 7 7 7 8 8 7 7 7 7 7 6 6 6 6 6 6 6 6 7
8 8 6 5 7 10 10 12 11 12 15 15 15 15 14 13 10 10 8 8 8 11 10 10 9 9 8 8 8 7 7 7 7 7 7 7 7 7 7 6 6 5 6 5 5 5 5 5 6
5 4 6 7 8 9 9 12 11 12 15 16 15 17 10 10 8 6 9 8 11 11 10 10 9 8 8 8 8 7 7 7 7 7 6 6 5 5 5 5 4 4 4 4 5 4 5 5 7
5 6 6 8 14 10 12 12 13 14 14 13 13 13 15 9 6 7 9 8 10 10 10 9 9 8 8 8 8 7 7 6 6 5 5 5 4 4 4 4 4 3 3 3 4 4 6 5 7
6 7 9 7 13 12 9 11 12 10 12 13 14 13 13 11 9 6 6 7 10 10 10 9 8 8 8 8 7 7 6 6 5 5 5 4 4 4 3 3 3 3 3 3 4 4 6 6 7
10 10 11 8 11 12 9 9 10 10 13 12 13 13 12 10 8 6 6 7 9 10 9 9 8 8 7 7 6 6 6 5 5 4 4 4 3 3 3 3 3 3 4 3 4 4 5 6 7
10 8 6 4 4 6 8 7 11 11 9 9 10 11 9 9 8 8 6 8 10 8 8 8 8 7 7 6 6 6 5 5 4 4 3 3 3 3 3 3 3 3 4 5 4 4 4 5 7
1 2 8 1 6 8 8 7 9 10 10 10 8 8 7 8 9 9 8 7 8 7 7 8 8 7 7 6 6 6 5 5 4 4 3 3 2 2 3 3 3 3 4 5 6 5 5 5 7
5 6 9 7 2 8 6 9 7 9 10 12 7 8 9 9 9 9 8 7 5 6 7 7 8 7 7 7 6 6 6 5 5 5 5 4 4 3 4 4 4 4 4 6 6 7 7 6 7
3 6 1 1 7 5 5 6 4 6 6 10 10 9 9 8 8 8 7 5 5 5 6 6 6 8 8 8 7 7 7 6 6 7 7 6 6 6 6 5 6 6 6 6 7 8 8 8 8
3 5 3 2 4 6 6 5 1 5 5 4 7 6 6 6 7 6 4 3 2 3 4 5 6 7 9 8 8 8 8 8 8 7 7 7 7 7 8 8 7 7 7 7 8 9 9 10 10
3 3 2 3 3 5 4 5 4 2 2 3 5 4 4 4 4 4 4 3 2 2 3 5 7 8 9 9 9 9 9 9 9 9 9 8 8 7 8 8 9 9 8 9 9 9 9 10 11
2 2 3 1 2 4 3 6 3 2 3 4 4 3 2 2 2 2 2 2 1 1 3 5 6 8 9 9 9 9 9 9 10 9 10 9 9 8 9 9 9 9 11 12 11 11 11 10 12
3 3 3 3 2 1 3 4 4 4 4 3 3 1 1 0 1 3 2 2 2 2 3 5 6 7 9 10 10 9 9 10 10 9 9 8 8 8 9 10 10 11 11 13 15 16 15 12 13
4 4 6 7 4 1 2 2 1 2 3 3 2 1 2 1 2 3 3 4 3 5 5 6 8 8 10 11 11 11 10 9 8 10 8 8 8 8 9 10 11 12 14 13 14 16 17 16 15
3 4 5 8 9 3 2 4 4 3 3 1 1 2 3 3 3 4 4 5 5 6 6 6 6 7 9 10 10 10 10 9 8 8 8 8 9 10 11 11 12 13 13 13 13 14 16 16 15
2 4 4 2 5 4 5 5 5 4 4 2 3 3 3 4 5 5 5 5 6 7 7 8 8 9 13 15 13 10 10 9 7 7 5 7 8 11 12 13 14 14 14 14 14 16 17 17 18
5 5 7 8 7 4 4 6 6 6 6 4 3 3 3 5 5 5 6 7 8 7 8 9 11 17 9 16 19 14 11 9 5 5 6 7 9 11 12 14 15 15 15 15 15 17 18 18 18
4 4 3 1 3 3 6 7 8 8 6 6 4 4 4 5 5 5 6 7 7 7 9 10 11 9 8 15 15 17 10 8 4 3 5 6 9 11 12 14 15 15 16 17 17 18 19 19 19
6 6 7 7 4 4 6 10 10 10 9 9 6 5 5 5 5 5 5 6 7 8 9 10 8 8 6 12 7 11 8 5 2 3 4 7 9 11 12 13 14 13 13 15 16 17 17 18 19
8 8 10 9 6 6 7 10 11 11 9 10 8 7 5 5 5 5 5 5 7 9 9 9 6 3 3 6 8 7 3 1 3 3 6 8 11 11 11 12 11 11 12 13 14 15 17 17 18
9 9 9 9 7 9 8 12 11 13 12 10 10 9 7 7 6 5 5 6 6 8 8 7 5 2 1 2 5 2 3 4 3 5 7 9 10 10 11 12 12 10 10 11 12 12 14 16 17
11 8 7 7 9 8 11 8 15 2 6 10 7 9 11 8 6 6 6 5 6 6 8 7 3 3 2 2 0 1 2 3 4 7 9 10 9 10 11 13 11 10 10 10 10 11 11 14 15
8 8 8 10 9 7 9 6 6 8 9 8 10 12 7 7 7 6 5 4 5 5 6 6 4 2 1 2 1 1 2 4 6 9 9 9 10 11 12 13 11 9 9 8 8 9 9 11 13
9 7 8 6 4 8 11 9 9 14 7 10 8 5 7 6 6 5 4 4 5 5 5 5 3 2 1 1 1 1 2 4 6 9 10 11 11 11 13 12 10 9 9 8 8 6 6 8 10
11 10 9 7 6 9 8 9 7 4 4 4 3 6 6 5 5 5 5 5 5 5 5 5 3 2 3 3 2 2 3 4 7 9 11 12 11 11 12 13 10 10 9 9 9 7 4 4 5
11 11 12 11 11 9 9 8 8 6 8 10 12 9 7 7 5 4 4 5 5 6 5 4 3 4 3 3 3 2 2 4 7 9 11 11 10 11 12 13 12 11 12 11 10 8 4 3 1
11 11 8 8 9 10 9 7 8 8 11 13 14 11 7 7 5 4 4 4 6 7 6 5 5 5 6 4 4 2 1 4 6 8 10 11 11 10 11 12 13 13 13 13 13 12 10 6 4
11 11 12 10 9 9 11 11 12 14 11 9 13 14 8 8 7 4 3 3 6 8 8 7 7 8 8 6 5 3 1 3 4 7 9 10 11 11 10 11 12 13 13 13 13 13 12 11 9
10 13 11 9 13 12 11 12 11 8 7 7 7 8 6 6 5 3 2 3 7 8 7 7 10 10 9 7 6 5 1 2 4 6 8 9 10 10 10 10 11 12 13 13 13 13 13 13 11
Wind_Direction
45 42 75 74 71 73 68 60 65 64 60 54 54 53 54 30 33 85 129 131 138 148 147 144 144 145 146 144 144 140 135 134 131 129 131 128 126 131 138 142 143 151 149 147 146 143 141 134 124
40 45 84 70 84 73 70 71 72 67 69 60 54 57 63 64 77 109 119 134 141 147 145 143 144 144 145 143 141 140 136 133 131 131 131 129 129 128 130 133 138 145 157 154 156 157 149 150 145
35 56 70 65 87 79 92 82 75 73 73 66 59 48 53 76 79 92 127 128 142 145 146 144 141 142 144 144 144 142 140 139 137 136 137 137 138 137 137 138 144 145 152 167 175 174 171 163 160
64 62 69 85 81 71 90 92 83 80 73 65 60 41 47 55 54 106 127 135 144 150 150 147 146 144 144 145 145 145 145 145 145 145 147 150 152 154 154 155 157 160 162 180 188 182 183 180 170
51 92 83 93 91 83 82 91 76 74 76 69 53 51 45 45 81 106 128 142 150 152 155 152 150 150 148 148 148 148 146 145 145 145 149 151 154 158 167 173 180 179 169 165 175 192 189 186 178
80 107 80 72 92 89 68 84 82 77 84 72 59 55 45 55 59 73 125 140 153 147 156 158 157 158 158 156 155 154 152 150 148 147 148 155 158 163 168 175 178 184 187 172 165 175 185 192 186
109 61 32 39 90 94 98 89 81 62 77 54 66 51 51 58 59 73 110 145 161 160 163 168 168 169 169 167 167 167 165 167 164 160 159 160 170 176 179 181 190 195 196 199 189 180 183 189 192
340 16 336 325 101 98 111 89 79 63 53 77 65 38 59 59 71 75 92 125 152 167 172 179 183 183 185 183 183 184 184 184 183 184 186 189 187 196 204 207 205 210 213 206 208 206 197 198 201
110 57 102 105 154 99 105 100 64 61 43 33 34 70 77 74 74 77 88 112 140 163 175 190 195 198 199 200 202 201 202 205 210 214 218 223 222 226 226 225 224 228 226 223 219 216 212 211 212
17 137 161 142 76 73 85 117 110 41 57 41 62 75 76 75 74 78 85 92 126 156 177 190 205 211 210 213 214 217 217 221 225 231 234 234 238 248 242 239 242 241 241 235 230 225 221 219 218
99 96 95 92 77 54 81 98 50 71 17 42 90 89 88 79 77 70 69 94 145 169 198 214 219 219 216 221 220 227 230 233 234 235 237 244 246 264 243 244 243 247 242 240 234 231 232 229 226
133 239 106 85 79 37 37 106 76 60 8 100 95 92 84 76 76 68 71 61 105 195 221 228 231 225 224 227 230 233 235 236 240 242 241 245 255 254 250 252 249 245 244 245 243 241 240 236 234
222 200 195 244 123 60 82 1 156 26 93 90 96 97 74 55 36 19 37 33 28 264 258 254 240 231 233 234 232 236 239 240 240 238 243 245 254 256 255 256 252 254 256 251 247 243 243 238 238
309 319 269 287 251 355 63 13 73 78 122 117 127 119 19 17 347 344 353 357 322 292 288 267 247 242 237 235 232 236 240 242 238 234 245 246 252 259 259 261 257 261 269 257 253 250 240 246 245
277 258 259 243 237 99 37 358 78 78 129 130 147 248 284 265 327 335 330 322 301 294 293 281 258 255 247 236 235 240 245 244 242 243 248 246 255 266 269 269 268 266 266 266 258 247 237 246 258
223 242 270 268 205 231 345 297 263 249 154 156 222 279 278 276 298 311 316 315 306 305 307 298 266 265 264 244 239 237 241 245 234 242 250 254 264 270 274 275 275 274 268 262 259 241 240 247 247
256 248 264 142 194 250 280 272 257 254 199 260 276 301 295 284 296 301 305 307 315 309 310 310 291 301 285 263 241 235 235 228 245 238 262 275 276 274 279 277 276 277 270 262 255 246 249 250 242
280 243 311 204 222 218 306 284 252 257 222 241 268 289 293 283 288 287 301 307 304 307 309 305 320 321 316 322 231 236 230 218 235 237 271 286 292 289 289 286 280 276 268 264 258 253 251 249 247
283 278 299 312 193 272 288 278 249 242 233 234 243 273 271 293 284 281 306 322 315 314 312 311 314 333 334 332 238 214 213 210 226 252 289 303 307 303 302 298 290 283 274 267 263 259 254 250 246
269 268 261 278 246 262 273 277 276 247 248 232 235 261 271 292 293 279 297 316 325 327 319 322 316 335 6 23 93 187 193 183 262 283 301 315 318 314 309 306 300 291 281 273 267 261 256 251 251
258 251 256 257 292 283 270 282 272 265 244 220 236 248 264 288 286 272 291 314 320 324 328 329 326 345 14 47 66 107 132 300 356 330 328 322 323 321 321 322 313 301 289 279 274 264 256 251 247
248 260 283 255 283 272 284 292 282 272 233 231 239 230 270 279 282 275 284 305 318 327 338 337 333 327 324 57 60 78 49 20 8 352 340 334 330 327 328 329 321 308 302 289 278 271 260 249 247
237 273 272 283 274 286 291 299 309 247 234 236 247 240 266 275 268 267 280 294 317 330 336 342 336 315 268 235 31 18 338 11 14 357 350 346 345 343 341 340 333 325 314 303 286 276 266 252 247
256 266 278 269 263 278 279 298 296 267 270 234 257 268 249 270 258 262 272 285 311 323 332 343 335 329 273 227 266 44 52 24 10 1 357 356 353 348 345 343 340 337 332 324 306 285 269 259 250
235 253 268 273 265 250 277 289 267 254 264 217 228 228 251 251 244 250 256 283 298 312 324 330 312 308 208 208 141 73 38 12 10 4 1 0 356 358 358 359 359 358 354 351 344 316 281 272 254
225 225 230 256 250 269 294 280 272 242 195 212 265 249 244 239 236 244 255 278 293 302 315 316 295 249 199 182 166 136 37 26 11 8 10 7 8 9 12 11 12 14 11 9 4 353 328 305 259
245 235 241 254 268 285 269 274 259 262 229 249 277 242 233 226 223 232 249 273 293 300 306 289 270 225 207 189 186 169 40 15 15 16 11 13 17 21 22 25 29 30 26 22 18 23 12 18 13
230 247 263 269 264 270 277 267 263 260 251 278 295 238 252 237 221 221 250 281 304 301 293 266 251 219 195 184 182 176 41 23 23 18 17 21 21 26 29 31 32 33 32 35 39 44 47 49 49
247 249 252 251 254 260 272 271 261 261 262 291 310 263 226 230 232 237 248 287 315 310 294 272 248 214 195 187 181 179 103 22 23 21 22 25 29 32 30 30 30 33 34 37 44 46 48 51 54
241 241 243 248 268 258 257 269 278 270 286 293 313 217 270 233 232 235 253 288 321 330 333 316 246 203 190 182 174 163 139 26 23 23 26 28 30 30 30 29 33 35 39 42 46 48 49 50 51